Powrót do katalogu

FENGYUN 1C DEB

AktywnySSO
NORAD 35220·DEBRIS·🇨🇳 China

Wystrzelony May 10, 1999 z Taiyuan Satellite Launch Center

Loading…

Następne Przeloty (najbliższe 24 godziny)

TLE

Starzejące sięSource: Space-Track

Epoka: Sep 11, 2026, 04:19 UTC

1 35220U 99025DQC 26254.18053009  .00001888  00000-0  83170-3 0  9999
2 35220  99.0136 335.9790 0043065 244.4080 115.2644 14.24189668670597

Śledź FENGYUN 1C DEB w czasie rzeczywistym z AllMySat

Download on the App Store